www.pogodaiklimat.ru

Погода и климат >> Архив погоды >> Австралия >> Западная Австралия >> Марбл-бар


ПОГОДА в Марбл-баре

  • Прогноз погоды в Марбл-баре
  • Монитор погоды в Марбл-баре

АРХИВ ПОГОДЫ в Марбл-баре

Время (UTC), дата Ветер
(напр.,м/с)
 
Видим.   Явления Облачность Т
(С)
Тd
(С)
f
(%)
Тe
(С)
Тes
(С)
Комфортность P
(гПа)
Po
(гПа)
Тmin
(С)
Tmax
(С)
R
(мм)
R24
(мм)
S
(см)
07 11.08 ЮВ 5 н/о н/о +29.2 -5.5 10 +26 +26 жарко 1016.7 995.5
09 11.08 ЮВ 4 н/о н/о +27.9 -4.1 12 +25 +25 комфорт 1017.1 995.9
10 11.08 В 3 н/о н/о +25.5 -3.0 15 +23 +23 комфорт 1017.6 996.4
12 11.08 ЮВ 3 н/о н/о +21.2 -2.6 20 +20 +20 1018.9 997.6
13 11.08 ЮВ 4 н/о н/о +21.5 -2.4 20 +21 +21 комфорт 1019.2 997.9 +30.1
15 11.08 ЮВ 3 н/о н/о +20.4 -2.6 21 +21 +21 комфорт 1019.4 998.1
16 11.08 ЮВ 4 н/о н/о +20.9 -2.9 20 +21 +21 комфорт 1018.7 997.5
18 11.08 ЮВ 4 н/о н/о +19.4 -2.8 22 +19 +19 1017.9 996.7
19 11.08 ЮВ 3 н/о н/о +17.6 -2.1 26 +18 +18 1017.6 996.4
21 11.08 ЮВ 3 н/о н/о +17.1 -1.5 28 +17 +17 1017.8 996.6
22 11.08 В 2 н/о н/о +18.8 -2.7 23 +19 +19 1018.9 997.6
00 12.08 ЮВ 3 н/о н/о +20.4 -2.0 22 +21 +21 комфорт 1020.9 999.6
01 12.08 В 5 н/о н/о +24.0 -4.2 15 +22 +22 комфорт 1021.2 999.9 +14.6
03 12.08 В 6 н/о н/о +27.7 -5.4 11 +25 +25 комфорт 1020.1 998.8
04 12.08 В 6 н/о н/о +28.6 -6.0 10 +25 +25 комфорт 1019.2 997.9
06 12.08 В 4 н/о н/о +30.1 -4.8 10 +27 +27 жарко 1017.2 996.0
07 12.08 В 3 н/о н/о +29.8 -3.8 11 +26 +26 жарко 1016.7 995.5
09 12.08 В 3 н/о н/о +28.8 -2.3 13 +26 +26 жарко 1017.0 995.8
10 12.08 В 2 н/о н/о +25.7 -2.0 16 +24 +24 комфорт 1017.6 996.4
12 12.08 ЮВ 3 н/о н/о +22.0 -0.7 22 +21 +21 комфорт 1019.0 997.7
13 12.08 ЮВ 3 н/о н/о +21.8 -0.8 22 +21 +21 комфорт 1019.2 997.9 +30.8
15 12.08 ЮВ 4 н/о н/о +20.5 -1.9 22 +21 +21 комфорт 1018.6 997.4
16 12.08 ЮВ 3 н/о н/о +19.6 -1.5 24 +20 +20 1018.4 997.2
18 12.08 ЮВ 1 н/о н/о +16.0 -1.5 30 +18 +18 1017.8 996.6
19 12.08 штиль 0 н/о н/о +14.4 -0.8 35 +14 +14 1018.0 996.8
21 12.08 штиль 0 н/о н/о +14.3 -1.3 34 +14 +14 1018.6 997.4
22 12.08 ЮВ 1 н/о н/о +13.0 -0.3 40 +14 +14 1019.3 998.0
00 13.08 В 2 н/о н/о +20.6 -0.7 24 +21 +21 комфорт 1020.1 998.8
01 13.08 В 3 н/о н/о +24.2 -1.6 18 +23 +23 комфорт 1020.2 998.9 +12.7
03 13.08 СВ 4 н/о н/о +28.8 -4.6 11 +26 +26 жарко 1019.0 997.7
04 13.08 СВ 4 н/о н/о +30.0 -3.6 11 +27 +27 жарко 1018.0 996.8
09 13.08 СВ 1 н/о н/о +29.8 -2.6 12 +27 +27 жарко 1016.0 994.8
10 13.08 СВ 1 н/о н/о +27.1 -0.9 16 +25 +25 комфорт 1016.3 995.1
12 13.08 С 2 н/о н/о +22.7 -0.1 22 +22 +22 комфорт 1017.8 996.6
13 13.08 штиль 0 н/о н/о +19.9 -0.1 26 +20 +20 1018.1 996.9 +32.1
15 13.08 штиль 0 н/о н/о +16.6 +0.3 33 +17 +17 1017.8 996.6
16 13.08 штиль 0 н/о н/о +17.3 +0.5 32 +17 +17 1017.7 996.5
18 13.08 ЮВ 1 н/о н/о +18.0 +0.2 30 +20 +20 1017.2 996.0
19 13.08 ЮВ 1 н/о н/о +18.3 +0.9 31 +20 +20 1017.2 996.0
21 13.08 ЮВ 1 н/о н/о +18.1 +0.3 30 +19 +19 1017.1 995.9
22 13.08 штиль 0 н/о н/о +16.5 +1.0 35 +17 +17 1017.7 996.5
00 14.08 штиль 0 н/о н/о +20.1 +2.0 30 +20 +20 1019.0 997.7
01 14.08 СВ 2 н/о н/о +23.8 +0.2 21 +23 +23 комфорт 1019.5 998.2 +15.4
03 14.08 С 3 н/о н/о +28.9 -2.3 13 +26 +26 жарко 1018.1 996.9
04 14.08 С 6 н/о н/о +30.2 -2.3 12 +27 +27 жарко 1016.8 995.6
06 14.08 С 6 н/о н/о +31.1 -0.5 13 +28 +28 жарко 1014.5 993.3
07 14.08 С 5 н/о н/о +30.9 +1.3 15 +28 +28 жарко 1014.7 993.5
09 14.08 СЗ 5 н/о н/о +28.8 +2.9 19 +27 +27 жарко 1015.1 993.9
10 14.08 СЗ 5 н/о н/о +27.0 +6.4 27 +26 +26 жарко 1015.8 994.6
12 14.08 СЗ 3 н/о н/о +24.5 +8.5 36 +25 +25 комфорт 1017.5 996.3
13 14.08 С 2 н/о н/о +22.5 +11.6 50 +25 +25 комфорт 1017.8 996.6 +32.5
15 14.08 С 1 н/о н/о +20.1 +13.1 64 +24 +24 комфорт 1017.8 996.6
16 14.08 С 1 н/о н/о +20.1 +12.6 62 +23 +23 комфорт 1017.6 996.4
18 14.08 СЗ 2 н/о н/о +22.0 +16.1 69 +26 +26 душно 1016.8 995.6
19 14.08 З 2 н/о н/о +22.0 +15.8 68 +26 +26 душно 1016.6 995.4
21 14.08 З 2 н/о н/о +20.6 +16.6 78 +25 +25 комфорт 1016.6 995.4
22 14.08 З 2 н/о н/о +21.2 +17.0 77 +25 +25 комфорт 1017.1 995.9
00 15.08 ЮЗ 2 н/о н/о +21.6 +18.2 81 +26 +26 душно 1018.3 997.1
01 15.08 ЮЗ 1 н/о н/о +22.0 +18.4 80 +27 +27 душно 1018.7 997.5 +19.8
03 15.08 З 2 н/о н/о +26.5 +13.3 44 +28 +28 жарко 1017.5 996.3
04 15.08 СЗ 4 н/о н/о +28.0 +10.7 34 +29 +29 жарко 1016.7 995.5
06 15.08 З 6 н/о н/о +28.0 +10.2 33 +28 +28 жарко 1015.6 994.4
07 15.08 З 7 н/о н/о +26.9 +10.6 36 +28 +28 жарко 1015.2 994.0
09 15.08 З 4 н/о н/о +25.6 +11.4 41 +27 +27 жарко 1015.8 994.6
10 15.08 З 3 н/о н/о +24.4 +12.4 47 +26 +26 жарко 1016.3 995.1
12 15.08 СЗ 2 н/о н/о +22.5 +13.8 58 +26 +26 жарко 1017.3 996.1
13 15.08 СЗ 1 н/о н/о +22.6 +13.7 57 +26 +26 жарко 1017.5 996.3 +29.6
15 15.08 СЗ 1 н/о н/о +21.5 +14.4 64 +24 +24 комфорт 1017.5 996.3
16 15.08 ЮЗ 3 н/о н/о +21.3 +14.5 65 +24 +24 комфорт 1017.8 996.6
18 15.08 Ю 3 н/о н/о +18.7 +12.9 69 +20 +20 1017.0 995.8
19 15.08 Ю 3 н/о н/о +17.8 +12.9 73 +18 +18 1016.7 995.5
21 15.08 Ю 2 н/о н/о +16.0 +12.9 82 +16 +16 1017.3 996.1
22 15.08 Ю 3 н/о н/о +16.2 +13.1 82 +16 +16 1018.0 996.8
00 16.08 ЮВ 5 н/о н/о +18.4 +13.1 71 +19 +19 1019.4 998.1
01 16.08 ЮВ 5 н/о н/о +21.5 +11.8 54 +24 +24 комфорт 1019.8 998.5 +15.4
03 16.08 В 4 н/о н/о +24.4 +9.9 40 +25 +25 комфорт 1018.9 997.6
04 16.08 В 3 н/о н/о +25.7 +7.8 32 +26 +26 жарко 1018.1 996.9
06 16.08 СЗ 2 н/о н/о +27.3 +5.0 24 +26 +26 жарко 1016.6 995.4
07 16.08 В 2 н/о н/о +27.1 +4.2 23 +26 +26 жарко 1016.2 995.0
09 16.08 З 1 н/о н/о +26.9 +2.7 21 +25 +25 комфорт 1016.0 994.8
10 16.08 Ю 2 н/о н/о +23.9 +3.8 27 +23 +23 комфорт 1016.4 995.2
12 16.08 Ю 2 н/о н/о +20.2 +3.9 34 +22 +22 комфорт 1017.6 996.4
13 16.08 Ю 3 н/о н/о +20.6 +5.0 36 +22 +22 комфорт 1017.9 996.7 +28.0
15 16.08 Ю 3 н/о н/о +20.1 +4.2 35 +21 +21 комфорт 1018.5 997.3
16 16.08 Ю 3 н/о н/о +18.0 +3.9 39 +18 +18 1018.7 997.5
18 16.08 ЮВ 1 н/о н/о +14.8 +3.6 47 +15 +15 1018.4 997.2
19 16.08 Ю 1 н/о н/о +13.5 +3.3 50 +14 +14 1018.1 996.9
21 16.08 штиль 0 н/о н/о +12.5 +3.5 54 +12 +12 1017.7 996.5
22 16.08 штиль 0 н/о н/о +10.7 +3.0 59 +10 +10 1018.2 997.0
00 17.08 Ю 1 н/о н/о +19.1 +5.6 41 +21 +21 комфорт 1019.8 998.5
01 17.08 В 2 н/о н/о +21.8 +4.8 33 +22 +22 комфорт 1020.2 998.9 +10.6
03 17.08 Ю 4 н/о н/о +25.0 -0.2 19 +23 +23 комфорт 1020.0 998.7
04 17.08 ЮВ 4 н/о н/о +26.1 -1.7 16 +24 +24 комфорт 1019.5 998.2
06 17.08 Ю 4 н/о н/о +27.9 -5.2 11 +25 +25 комфорт 1017.7 996.5
07 17.08 Ю 4 н/о н/о +28.4 -6.1 10 +25 +25 комфорт 1017.4 996.2
09 17.08 Ю 4 н/о н/о +26.5 -7.6 10 +23 +23 комфорт 1017.7 996.5
10 17.08 Ю 3 н/о н/о +23.9 -7.2 12 +22 +22 комфорт 1018.2 997.0
12 17.08 Ю 3 н/о н/о +20.9 -5.0 17 +21 +21 комфорт 1020.1 998.8
13 17.08 Ю 4 н/о н/о +21.5 -4.5 17 +20 +20 1020.6 999.3 +28.7
15 17.08 ЮВ 3 н/о н/о +17.9 -3.5 23 +18 +18 1020.8 999.5
16 17.08 ЮВ 4 н/о н/о +19.3 -2.9 22 +19 +19 1020.8 999.5
18 17.08 ЮВ 6 н/о н/о +18.4 -1.4 26 +18 +18 1020.6 999.3
19 17.08 ЮВ 6 н/о н/о +16.9 -0.3 31 +16 +16 1020.9 999.6
21 17.08 ЮВ 4 н/о н/о +15.1 -1.9 31 +14 +14 1021.5 1000.2
22 17.08 ЮВ 3 н/о н/о +13.9 -2.1 33 +13 +13 1022.3 1001.0
00 18.08 ЮВ 9 н/о н/о +17.4 -2.8 25 +16 +16 1023.7 1002.3
01 18.08 ЮВ 9 н/о н/о +19.2 -3.0 22 +18 +18 1024.1 1002.7 +13.8
03 18.08 ЮВ 8 н/о н/о +21.8 -2.8 19 +21 +21 комфорт 1023.5 1002.2
04 18.08 ЮВ 7 н/о н/о +22.5 -4.5 16 +21 +21 комфорт 1022.6 1001.3
06 18.08 ЮВ 7 н/о н/о +24.3 -6.9 12 +22 +22 комфорт 1020.7 999.4
07 18.08 ЮВ 7 н/о н/о +25.0 -7.5 11 +22 +22 комфорт 1019.9 998.6

 

Местоположение метеостанции Марбл-бар (Западная Австралия, Австралия): широта -21.18 долгота 119.75 высота над уровнем моря 183 м.

В архиве по умолчанию представлена погода в Марбл-баре за последнюю неделю. Архивные данные за месяц целиком и за предыдущие месяцы, начиная с января 2011 года, Вы можете получить, выбрав интересующий диапазон дат из раскрывающегося списка и нажав кнопку "Ввод!".


*Определитесь, кто Вы:
робот инопланетянин человек

Внимание! Время в таблицах - всемирное. Для получения местного времени необходимо прибавить поправку, которая равна 8 ч.

Смотрите также архив погоды в соседних городах и на ближайших метеорологических станциях:

Погода в Порт-Хедленде Apardoo (Западная Австралия, Австралия) (148 км)
Погода в Мандоре (Западная Австралия, Австралия) (198 км)
Погода в Ньюмане (Западная Австралия, Австралия) (248 км)
Погода в Телфере (Западная Австралия, Австралия) (261 км)
Погода в Роборн аэропорту (Западная Австралия, Австралия) (274 км)
Погода в Параберду (Западная Австралия, Австралия) (302 км)
Погода в Каррате (Западная Австралия, Австралия) (314 км)
Погода в Марди (Западная Австралия, Австралия) (392 км)
Погода в Роули Шоалс (Западная Австралия, Австралия) (415 км)
Погода на Острове Варанас (Западная Австралия, Австралия) (438 км)

Пояснения к столбцам:

Ветер - указаны скорость ветра в м/с - средняя за 10 мин, порывы в срок и между сроками (в фигурных скобках) и направление, откуда дует ветер: С - северный, СВ - северо-восточный, В - восточный, ЮВ - юго-восточный, Ю - южный, ЮЗ - юго-западный, З - западный, СЗ - северо-западный.
Видимость - горизонтальная дальность видимости в метрах или километрах. При видимости от 1 до 10 км при отсутствии осадков обычно наблюдается дымка, при ухудшении видимости до 1 км и менее - туман. В сухую погоду видимость может ухудшаться дымом, пылью или мглою.
Явления - указаны атмосферные явления, наблюдавшиеся в срок или в последний час перед сроком; фигурными скобками обозначены явления, наблюдавшиеся между сроками (за 1-3 часа до срока); квадратными скобками обозначены град или гололедные отложения с указанием их диаметра в мм.
Облачность - указаны через наклонную черту общая и нижняя облачность в баллах и высота нижней границы облаков в метрах; квадратными скобками обозначены формы облаков: Ci - перистые, Cs - перисто-слоистые, Cc - перисто-кучевые, Ac - высококучевые, As - высокослоистые, Sc - слоисто-кучевые, Ns - слоисто-дождевые, Cu - кучевые, Cb - кучево-дождевые. Подробнее классификацию облаков см. в Атласе облаков (PDF).
T - Температура воздуха - температура, измеренная на высоте 2 м над землей.
Td - Температура точки росы - температура, при понижении до которой содержащийся в воздухе водяной пар достигнет насыщения.
f - Относительная влажность воздуха - влажноcть воздуха, измеренная на высоте 2 м над землей.
Te - Эффективная температура - температура, которую ощущает одетый по сезону человек в тени. Характеристика душности погоды. При расчете учитывается влияние влажности воздуха и скорости ветра на теплоощущения человека.
Tes - Эффективная температура на солнце - температура, которую ощущает человек, с поправкой на солнечный нагрев. Характеристика знойности погоды. Зависит от высоты солнца над горизонтом, облачности и скорости ветра. Ночью, в пасмурную погоду, а также при ветре 12 м/с и более поправка равна нулю.
P - Атмосферное давление - приведенное к уровню моря атмосферное давление.
Po - Атмосферное давление - измеренное на уровне метеостанции атмосферное давление.
Tmin - Минимальная температура - минимум температуры воздуха на высоте 2 м над землей.
Tmax - Максимальная температура - максимум температуры воздуха на высоте 2 м над землей.
R - Количество осадков - Количество выпавших осадков за период времени, мм. При наведении курсора мыши на число - период времени, за который выпало указанное количество осадков.
R24 - Количество осадков - Количество выпавших осадков за 24 часа, мм.
S - Снежный покров - Высота снежного покрова, см. При наведении курсора мыши на число - состояние снежного покрова и степень покрытия местности в баллах.